sat.trackr.live / text

‹ back to catalog

ONEWEB-0614

NORAD 55156 · 2023-004S

PAYLOAD ACTIVE UNKNOWN

§ Identity

Operator
Country
UK
Launch date
2023-01-10
Launch site
AFETR
Launch vehicle
Mass (kg)
RCS (m²)

Purposes: comms

External: N2YO · Heavens-Above · Gunter

§ Orbital elements

Epoch: 2026-05-25T02:43:31.050048Z

Period
109.80 min
Inclination
87.8907°
Eccentricity
0.0001997
Mean motion
13.11417114 rev/d
Perigee alt
1,216.2 km
Apogee alt
1,219.2 km
Semi-major
7,595.8 km
B*
1.3961e-3
RAAN
25.6686°
Arg perigee
85.4181°
Mean anomaly
274.7175°
Rev number
16,281

§ Raw data

ONEWEB-06141 55156U 23004S   26145.11355382  .00000508  00000+0  13961-2 0  99912 55156  87.8907  25.6686 0001997  85.4181 274.7175 13.11417114162814

JSON: /api/v1/satellites/55156 · /tle

For live sub-satellite position, see the globe view (requires WebGL).

§ Visibility from observer

Set your observer location to see the next 7 days of passes ≥ 10°. The values pass through the URL so the page stays shareable.

No JS? Fill the form by hand. The geolocation button needs JavaScript.